Location: *
(42.5271°N, 0.8012°E)
Time: 12:48:24
(UTC+00:00)

Daily predictions for brighter satellites

Satellite Brightness Start Highest point End
(mag) Time Altitude Azimuth Time Altitude Azimuth Time Altitude Azimuth
Cosmos 962 Rocket 4.5 16:48:42 10° N 16:54:58 72° E 17:01:07 10° SSE
Cosmos 2297 3.7 16:49:17 10° NNW 16:54:59 68° ENE 17:00:39 10° SSE
SL-16 R/B 2.2 16:51:13 10° SSW 16:56:53 85° ESE 17:02:34 10° NNE
CZ-4B R/B 2.9 16:57:27 10° NE 16:59:36 17° E 17:01:47 10° SE
Landsat 5 3.7 16:56:23 10° NNE 17:00:54 85° ESE 17:05:25 10° SSW
BREEZE-M DEB (TANK) 1.9 16:58:18 10° WSW 17:01:30 70° NNW 17:03:26 10° ENE
SMAP 3.2 17:00:11 10° SSE 17:04:42 55° ENE 17:09:16 10° N
USA 215 4.4 17:00:03 10° ENE 17:05:21 26° SE 17:10:37 10° S
Sich 1 3.4 17:04:40 10° NNW 17:09:01 70° W 17:13:18 10° S
Cosmos 1151 Rocket 3.0 17:06:54 10° S 17:11:06 60° E 17:15:18 10° NNE
CZ-4C R/B 3.6 17:08:16 10° N 17:11:53 61° WNW 17:15:24 10° SSW
Cosmos 1470 Rocket 4.0 17:09:53 10° N 17:13:54 36° ENE 17:17:54 10° SE
Cosmos 1515 Rocket 4.1 17:15:10 10° SSE 17:19:10 36° E 17:23:13 10° NNE
CZ-2C R/B 4.2 17:17:27 10° ESE 17:20:45 18° ENE 17:23:59 10° NNE
TIMED 4.5 17:18:10 10° S 17:22:29 68° ESE 17:26:50 10° NNE
Cosmos 482 Debris 2.7 17:21:00 10° NW 17:22:44 45° NNE 17:23:46 21° E
SL-8 Rocket 4.0 17:16:51 10° N 17:23:09 80° E 17:29:26 10° S
Cosmos 2341 Rocket 4.3 17:18:22 10° N 17:24:41 77° W 17:31:01 10° S
Radarsat Rocket 4.4 17:20:27 10° S 17:26:31 74° WSW 17:33:22 10° NNW
COSMO-SKYMED 1 3.4 17:23:31 10° NE 17:27:21 29° E 17:31:08 10° SSE
X-37B 0.5 17:24:14 10° WSW 17:27:25 85° NNW 17:29:28 20° ENE
USA 281 4.1 17:22:54 10° ESE 17:28:08 26° NE 17:33:23 10° N
Cosmos 1689 Rocket 4.2 17:29:01 13° ESE 17:29:01 13° ESE 17:29:51 10° SE
Cosmos 1959 Rocket 4.5 17:22:21 10° N 17:28:44 73° E 17:35:03 10° SSE
Cosmos 2228 Rocket 4.2 17:28:10 10° SE 17:31:50 25° E 17:34:29 15° NE
CORIOLIS 4.1 17:26:37 10° SSE 17:32:01 86° ENE 17:37:29 10° NNW
USA 81 4.0 17:27:24 10° N 17:32:43 84° E 17:38:00 10° S
Meteor 1-4 Rocket 2.4 17:29:29 10° S 17:33:04 74° E 17:36:37 10° NNE
Cosmos 2285 Rocket 4.2 17:28:48 10° NNW 17:35:13 79° WSW 17:41:32 10° SSE
H-2A R/B 3.3 17:35:17 18° ENE 17:35:39 18° ENE 17:39:01 10° NNE
Cosmos 1812 3.8 17:32:37 10° SE 17:35:40 23° E 17:36:35 21° ENE
Cosmos 1939 Rocket 3.2 17:34:19 10° SE 17:37:57 40° ENE 17:41:38 10° N
USA 267 4.2 17:34:11 16° ENE 17:38:17 30° NNE 17:43:48 10° NW
Cosmos 1821 Rocket 4.5 17:32:58 10° N 17:38:44 37° ENE 17:44:32 10° SE
Cosmos 1328 Rocket 3.7 17:34:43 10° SSW 17:39:02 76° W 17:43:23 10° N
CZ-4 R/B 2.8 17:41:27 19° NE 17:41:27 19° NE 17:43:25 10° NNE
BREEZE-M DEB (TANK) 3.4 17:37:47 10° SSW 17:41:35 27° SSE 17:42:53 20° ESE
Cosmos 44 Rocket 4.3 17:38:34 10° NNW 17:43:02 28° NE 17:45:09 22° E
Cosmos 1933 Rocket 3.7 17:39:38 10° N 17:44:02 53° E 17:48:22 10° SSE
IRS-1C Rocket 4.3 17:39:19 10° SE 17:44:20 45° ENE 17:49:20 10° N
Cosmos 1602 3.7 17:42:39 10° N 17:46:35 89° E 17:50:27 10° S
Cosmos 2181 Rocket 4.4 17:40:33 10° SSW 17:46:54 68° W 17:53:16 10° N
H-2A R/B 4.5 17:43:21 10° SSW 17:47:08 31° W 17:50:51 10° NW
Lacrosse 4 Rocket 3.2 17:45:32 10° SE 17:46:59 14° ESE 17:46:59 14° ESE
NOAA 11 4.2 17:42:37 10° SSE 17:48:02 89° ENE 17:53:31 10° NNW
Cosmos 1680 Rocket 4.3 17:43:56 10° SSE 17:48:26 30° E 17:50:18 24° ENE
CZ-4B R/B 3.8 17:44:08 10° S 17:49:21 57° WSW 17:54:34 10° NNW
SL-24 R/B 4.0 17:49:33 23° NE 17:51:28 43° E 17:54:57 10° S
Cosmos 1603 3.7 17:46:55 10° S 17:52:28 64° ESE 17:56:56 16° NNE
CZ-2D R/B 3.5 17:51:11 10° SE 17:54:47 43° ENE 17:58:27 10° N
Cosmos 1943 3.2 17:50:18 10° S 17:55:50 60° ESE 17:59:58 18° NE
Cosmos 1538 Rocket 4.2 17:52:38 10° SSW 17:57:59 75° WNW 18:03:24 10° NNE
H-2A R/B 3.9 17:55:21 10° N 17:59:03 30° WNW 18:02:49 10° SW
Cosmos 2369 Rocket 2.1 17:54:01 10° NNW 17:59:44 81° ENE 18:05:22 10° SSE
Cosmos 1943 Rocket 2.7 17:55:28 10° NNW 18:00:56 61° WSW 18:06:26 10° S
Cosmos 1782 3.4 17:57:34 10° SSW 18:01:27 56° W 18:05:24 10° N
Okean O Rocket 2.9 17:57:26 10° S 18:01:34 42° W 18:05:45 10° NNW
Meteor 1-14 Rocket 4.3 17:56:10 10° N 18:02:11 90° WSW 18:08:10 10° S
Meteor 1-5 Rocket 4.3 17:56:29 10° N 18:02:17 55° ENE 18:07:51 10° SSE
Cosmos 1461 4.1 17:58:46 10° S 18:02:39 28° ESE 18:02:44 28° ESE
Okean-O 3.0 17:59:03 10° SE 18:03:10 40° ENE 18:07:19 10° N
CENTAUR R/B 3.0 18:00:45 10° S 18:05:55 36° ESE 18:07:44 30° E
ISS -1.9 18:03:45 10° NW 18:05:55 19° N 18:05:55 19° N
Cosmos 2112 Rocket 4.5 18:04:06 10° S 18:08:56 39° ESE 18:09:53 35° ENE
SL-08 R/B 4.5 18:07:05 10° N 18:13:14 84° W 18:19:20 10° S
ERS-2 2.8 18:10:45 14° N 18:13:49 55° WNW 18:17:23 10° SSW
NOSS 3-2 (C) 3.7 18:08:55 10° S 18:13:59 39° ESE 18:15:09 36° E
SKYMED 2 3.6 18:11:44 13° N 18:15:33 82° WNW 18:19:52 10° SSW
Cosmos 1869 Rocket 4.0 18:14:24 10° N 18:22:43 12° SSE 18:23:07 10° SSE
BREEZE-M DEB (TANK) 3.2 18:09:25 10° SW 18:19:00 80° SSE 18:19:59 51° ENE
Meteor 1-27 Rocket 4.0 18:15:05 10° SSE 18:20:12 40° E 18:20:12 40° E
Meteor 1-10 Rocket 4.1 18:18:57 10° S 18:24:35 75° E 18:28:49 18° NNE
Lacrosse 5 rocket 3.5 18:23:46 10° NW 18:25:25 13° NNW 18:25:53 12° NNW
FALCON 9 R/B 3.0 18:27:32 10° SW 18:28:30 15° SSW 18:28:30 15° SSW
CZ-4B R/B 3.7 18:29:34 11° NNW 18:31:47 21° WNW 18:34:16 10° WSW
NOSS 3-2 (A) 3.3 18:33:35 10° SW 18:39:11 83° NW 18:41:27 41° NNE
Cosmos 1500 4.3 18:38:53 10° NNW 18:42:32 43° W 18:46:10 10° SSW
YAOGAN 1 3.9 18:46:28 29° NNW 18:46:28 29° NNW 18:48:40 10° NNW
Cosmos 2239 Rocket 4.5 18:39:15 10° N 18:45:26 82° W 18:51:38 10° S
Cosmos 1535 Rocket 4.3 18:40:14 10° N 18:46:19 66° E 18:52:23 10° SSE
USA 215 3.2 18:46:43 47° NE 18:48:50 87° NW 18:55:23 10° SW
Cosmos 1656 Rocket 3.9 18:49:10 10° NNW 18:54:45 66° WSW 18:58:58 17° S
MOS 1 Rocket 3.7 18:52:44 32° N 18:55:17 74° WNW 19:00:36 10° SSW
USA 238 DEB 3.7 18:51:58 10° SW 18:58:32 73° NW 19:00:35 47° NNE
USA 238 3.7 18:52:03 10° SW 18:58:37 74° NW 19:00:39 48° NNE
CZ-2C R/B 3.5 18:55:21 10° S 19:00:15 54° W 19:05:00 10° NNW
X-37B 3.7 19:01:06 10° WNW 19:01:44 15° WNW 19:01:44 15° WNW
Cosmos 1238 Rocket 4.3 19:01:39 10° NNW 19:05:36 43° W 19:10:20 10° SSW
CSL-04 Debris 4.5 19:09:14 61° NNW 19:09:14 61° NNW 19:13:46 10° NNW
Cosmos 1934 Rocket 4.0 19:01:55 10° N 19:08:18 80° W 19:14:34 10° S
USA 281 3.4 19:05:34 10° SSE 19:12:06 69° WSW 19:18:40 10° NNW
H-2A R/B 2.8 19:15:55 47° NW 19:15:55 47° NW 19:19:43 10° NNW
CZ-4 R/B 3.8 19:17:29 18° NW 19:17:29 18° NW 19:18:47 10° NNW
USA 267 3.5 19:21:32 58° N 19:21:32 58° N 19:27:02 10° NW
Cosmos 44 Rocket 4.4 19:19:48 10° NW 19:23:56 44° W 19:23:56 44° W
Lacrosse 4 Rocket 3.9 19:22:16 10° SW 19:23:20 17° SW 19:23:20 17° SW
CENTAUR R/B 3.6 19:50:39 10° WSW 19:54:58 40° WNW 19:54:58 40° WNW
